Time,TemperatureF,DewpointF,PressureIn,WindDirection,WindDirectionDegrees,WindSpeedMPH,WindSpeedGustMPH,Humidity,HourlyPrecipIn,Conditions,Clouds,dailyrainin,SoftwareType,DateUTC
2013-03-09 00:00:00,30.3,28.8,30.20,NNW,339,0.1,2.0,94,0.00,,,0.00,meteo_script,2013-03-09 05:00:00,
2013-03-09 00:10:00,30.2,28.3,30.20,North,0,0.0,0.0,92,0.00,,,0.00,meteo_script,2013-03-09 05:10:00,
2013-03-09 00:15:00,30.2,28.2,30.20,NNW,340,0.0,3.0,92,0.00,,,0.00,meteo_script,2013-03-09 05:15:00,
2013-03-09 00:20:00,30.2,27.9,30.20,North,0,0.1,2.0,91,0.00,,,0.00,meteo_script,2013-03-09 05:20:00,
2013-03-09 00:25:00,30.1,27.8,30.20,North,353,0.2,4.0,91,0.00,,,0.00,meteo_script,2013-03-09 05:25:00,
2013-03-09 00:30:00,30.0,27.8,30.20,North,0,0.2,0.0,91,0.00,,,0.00,meteo_script,2013-03-09 05:30:00,
2013-03-09 00:35:00,29.8,27.5,30.20,North,0,0.1,2.0,91,0.00,,,0.00,meteo_script,2013-03-09 05:35:00,
2013-03-09 00:40:00,29.6,27.3,30.20,North,0,0.1,1.0,91,0.00,,,0.00,meteo_script,2013-03-09 05:40:00,
2013-03-09 00:45:00,29.5,27.2,30.20,North,0,0.0,0.0,91,0.00,,,0.00,meteo_script,2013-03-09 05:45:00,
2013-03-09 00:55:00,29.3,27.3,30.20,North,0,0.0,1.0,92,0.00,,,0.00,meteo_script,2013-03-09 05:55:00,
2013-03-09 01:00:00,29.2,27.2,30.20,North,354,0.1,4.0,92,0.00,,,0.00,meteo_script,2013-03-09 06:00:00,
2013-03-09 01:05:00,29.3,27.0,30.20,North,0,0.1,0.0,91,0.00,,,0.00,meteo_script,2013-03-09 06:05:00,
2013-03-09 01:10:00,29.2,26.9,30.20,North,354,0.0,1.0,91,0.00,,,0.00,meteo_script,2013-03-09 06:10:00,
2013-03-09 01:20:00,29.1,26.8,30.20,North,0,0.1,1.0,91,0.00,,,0.00,meteo_script,2013-03-09 06:20:00,
2013-03-09 01:25:00,29.0,26.8,30.20,North,0,0.0,2.0,91,0.00,,,0.00,meteo_script,2013-03-09 06:25:00,
2013-03-09 01:30:00,28.9,26.9,30.20,North,358,0.1,1.0,92,0.00,,,0.00,meteo_script,2013-03-09 06:30:00,
2013-03-09 01:35:00,28.8,26.8,30.20,North,357,0.0,1.0,92,0.00,,,0.00,meteo_script,2013-03-09 06:35:00,
2013-03-09 01:40:00,28.8,26.9,30.20,NNW,342,0.1,2.0,92,0.00,,,0.00,meteo_script,2013-03-09 06:40:00,
2013-03-09 01:50:00,28.5,26.5,30.19,NNW,346,0.2,2.0,92,0.00,,,0.00,meteo_script,2013-03-09 06:50:00,
2013-03-09 01:55:00,28.4,26.4,30.19,North,0,0.1,1.0,92,0.00,,,0.00,meteo_script,2013-03-09 06:55:00,
2013-03-09 02:00:00,28.4,26.6,30.19,North,0,0.0,1.0,93,0.00,,,0.00,meteo_script,2013-03-09 07:00:00,
2013-03-09 02:10:00,28.3,26.2,30.19,North,0,0.0,0.0,92,0.00,,,0.00,meteo_script,2013-03-09 07:10:00,
2013-03-09 02:15:00,28.2,26.2,30.19,North,0,0.0,2.0,92,0.00,,,0.00,meteo_script,2013-03-09 07:15:00,
2013-03-09 02:20:00,28.2,26.1,30.19,North,358,0.0,1.0,92,0.00,,,0.00,meteo_script,2013-03-09 07:20:00,
2013-03-09 02:25:00,28.1,26.1,30.19,North,358,0.0,1.0,92,0.00,,,0.00,meteo_script,2013-03-09 07:25:00,
2013-03-09 02:35:00,28.0,25.9,30.19,North,0,0.0,1.0,92,0.00,,,0.00,meteo_script,2013-03-09 07:35:00,
2013-03-09 02:40:00,27.9,25.9,30.19,North,0,0.0,0.0,92,0.00,,,0.00,meteo_script,2013-03-09 07:40:00,
2013-03-09 02:45:00,27.8,25.8,30.19,North,0,0.0,0.0,92,0.00,,,0.00,meteo_script,2013-03-09 07:45:00,
2013-03-09 02:50:00,27.7,25.7,30.19,North,0,0.0,1.0,92,0.00,,,0.00,meteo_script,2013-03-09 07:50:00,
2013-03-09 03:00:00,27.7,25.7,30.18,North,0,0.0,2.0,92,0.00,,,0.00,meteo_script,2013-03-09 08:00:00,
2013-03-09 03:05:00,27.6,25.6,30.18,North,0,0.0,0.0,92,0.00,,,0.00,meteo_script,2013-03-09 08:05:00,
2013-03-09 03:10:00,27.6,25.6,30.18,North,0,0.0,0.0,92,0.00,,,0.00,meteo_script,2013-03-09 08:10:00,
2013-03-09 03:20:00,27.2,25.5,30.19,North,0,0.0,0.0,93,0.00,,,0.00,meteo_script,2013-03-09 08:20:00,
2013-03-09 03:25:00,27.1,25.4,30.19,North,0,0.0,0.0,93,0.00,,,0.00,meteo_script,2013-03-09 08:25:00,
2013-03-09 03:30:00,27.1,25.6,30.19,North,0,0.0,0.0,94,0.00,,,0.00,meteo_script,2013-03-09 08:30:00,
2013-03-09 03:40:00,27.0,25.5,30.19,North,0,0.0,0.0,94,0.00,,,0.00,meteo_script,2013-03-09 08:40:00,
2013-03-09 03:45:00,26.9,25.2,30.19,North,358,0.0,1.0,93,0.00,,,0.00,meteo_script,2013-03-09 08:45:00,
2013-03-09 03:50:00,26.8,25.1,30.19,North,0,0.0,0.0,93,0.00,,,0.00,meteo_script,2013-03-09 08:50:00,
2013-03-09 03:55:00,26.7,25.2,30.20,North,0,0.0,1.0,93,0.00,,,0.00,meteo_script,2013-03-09 08:55:00,
2013-03-09 04:05:00,26.6,25.1,30.20,North,0,0.0,0.0,94,0.00,,,0.00,meteo_script,2013-03-09 09:05:00,
2013-03-09 04:10:00,26.5,25.0,30.20,North,0,0.0,0.0,94,0.00,,,0.00,meteo_script,2013-03-09 09:10:00,
2013-03-09 04:20:00,26.2,24.7,30.21,North,354,0.0,1.0,94,0.00,,,0.00,meteo_script,2013-03-09 09:20:00,
2013-03-09 04:30:00,25.8,24.5,30.21,North,0,0.0,1.0,95,0.00,,,0.00,meteo_script,2013-03-09 09:30:00,
2013-03-09 04:35:00,25.7,24.4,30.21,North,0,0.0,1.0,95,0.00,,,0.00,meteo_script,2013-03-09 09:35:00,
2013-03-09 04:40:00,25.6,24.4,30.22,North,354,0.0,1.0,95,0.00,,,0.00,meteo_script,2013-03-09 09:40:00,
2013-03-09 04:45:00,25.5,24.3,30.22,North,0,0.0,0.0,95,0.00,,,0.00,meteo_script,2013-03-09 09:45:00,
2013-03-09 04:55:00,25.3,24.1,30.23,North,0,0.0,0.0,95,0.00,,,0.00,meteo_script,2013-03-09 09:55:00,
2013-03-09 05:00:00,25.2,24.1,30.23,North,0,0.0,0.0,95,0.00,,,0.00,meteo_script,2013-03-09 10:00:00,
2013-03-09 05:05:00,25.1,24.1,30.23,North,355,0.0,1.0,96,0.00,,,0.00,meteo_script,2013-03-09 10:05:00,
2013-03-09 05:10:00,25.2,24.2,30.23,North,0,0.0,0.0,96,0.00,,,0.00,meteo_script,2013-03-09 10:10:00,
2013-03-09 05:20:00,25.1,24.4,30.23,North,0,0.0,2.0,97,0.00,,,0.00,meteo_script,2013-03-09 10:20:00,
2013-03-09 05:25:00,25.1,24.4,30.23,North,0,0.1,4.0,97,0.00,,,0.00,meteo_script,2013-03-09 10:25:00,
2013-03-09 05:30:00,25.2,24.7,30.23,North,0,0.2,4.0,98,0.00,,,0.00,meteo_script,2013-03-09 10:30:00,
2013-03-09 05:35:00,25.1,24.6,30.23,NNW,345,0.1,3.0,98,0.00,,,0.00,meteo_script,2013-03-09 10:35:00,
2013-03-09 05:45:00,24.9,24.2,30.23,North,0,0.0,0.0,97,0.00,,,0.00,meteo_script,2013-03-09 10:45:00,
2013-03-09 05:55:00,24.9,24.4,30.24,North,0,0.1,2.0,98,0.00,,,0.00,meteo_script,2013-03-09 10:55:00,
2013-03-09 06:00:00,24.7,24.2,30.24,North,0,0.1,3.0,98,0.00,,,0.00,meteo_script,2013-03-09 11:00:00,
2013-03-09 06:10:00,24.5,24.0,30.24,North,0,0.0,1.0,98,0.00,,,0.00,meteo_script,2013-03-09 11:10:00,
2013-03-09 06:15:00,24.5,24.0,30.24,North,0,0.0,0.0,98,0.00,,,0.00,meteo_script,2013-03-09 11:15:00,
2013-03-09 06:20:00,24.5,24.0,30.24,North,0,0.1,3.0,98,0.00,,,0.00,meteo_script,2013-03-09 11:20:00,
2013-03-09 06:25:00,24.5,23.9,30.24,North,0,0.1,1.0,97,0.00,,,0.00,meteo_script,2013-03-09 11:25:00,
2013-03-09 06:35:00,24.8,24.3,30.26,North,0,0.0,1.0,98,0.00,,,0.00,meteo_script,2013-03-09 11:35:00,
2013-03-09 06:40:00,24.9,24.5,30.26,North,0,0.0,0.0,98,0.00,,,0.00,meteo_script,2013-03-09 11:40:00,
2013-03-09 06:45:00,25.0,24.5,30.26,North,0,0.0,1.0,98,0.00,,,0.00,meteo_script,2013-03-09 11:45:00,
2013-03-09 06:55:00,24.9,24.4,30.26,North,351,0.0,1.0,98,0.00,,,0.00,meteo_script,2013-03-09 11:55:00,
2013-03-09 07:00:00,24.9,24.3,30.26,North,0,0.0,1.0,97,0.00,,,0.00,meteo_script,2013-03-09 12:00:00,
2013-03-09 07:05:00,25.0,24.6,30.27,North,0,0.0,0.0,98,0.00,,,0.00,meteo_script,2013-03-09 12:05:00,
2013-03-09 07:15:00,25.2,24.6,30.27,NNW,348,0.0,1.0,97,0.00,,,0.00,meteo_script,2013-03-09 12:15:00,
2013-03-09 07:20:00,25.6,25.1,30.27,North,0,0.0,1.0,98,0.00,,,0.00,meteo_script,2013-03-09 12:20:00,
2013-03-09 07:25:00,25.9,25.3,30.28,North,0,0.0,2.0,97,0.00,,,0.00,meteo_script,2013-03-09 12:25:00,
2013-03-09 07:30:00,26.1,25.5,30.28,North,0,0.1,2.0,97,0.00,,,0.00,meteo_script,2013-03-09 12:30:00,
2013-03-09 07:40:00,26.6,25.6,30.28,North,4,0.1,3.0,96,0.00,,,0.00,meteo_script,2013-03-09 12:40:00,
2013-03-09 07:45:00,27.1,26.1,30.28,North,0,0.2,3.0,96,0.00,,,0.00,meteo_script,2013-03-09 12:45:00,
2013-03-09 07:50:00,27.5,26.3,30.28,North,0,0.2,1.0,95,0.00,,,0.00,meteo_script,2013-03-09 12:50:00,
2013-03-09 08:00:00,28.4,26.9,30.27,North,357,0.0,1.0,94,0.00,,,0.00,meteo_script,2013-03-09 13:00:00,
2013-03-09 08:05:00,28.8,27.1,30.27,North,0,0.0,1.0,93,0.00,,,0.00,meteo_script,2013-03-09 13:05:00,
2013-03-09 08:10:00,29.2,27.4,30.27,North,0,0.0,1.0,93,0.00,,,0.00,meteo_script,2013-03-09 13:10:00,
2013-03-09 08:20:00,30.1,28.0,30.27,NW,321,0.3,4.0,92,0.00,,,0.00,meteo_script,2013-03-09 13:20:00,
2013-03-09 08:25:00,30.8,28.5,30.27,North,0,0.3,0.0,91,0.00,,,0.00,meteo_script,2013-03-09 13:25:00,
2013-03-09 08:35:00,32.0,28.9,30.28,NW,323,0.1,2.0,88,0.00,,,0.00,meteo_script,2013-03-09 13:35:00,
2013-03-09 08:40:00,32.4,29.3,30.28,NNW,343,0.1,2.0,88,0.00,,,0.00,meteo_script,2013-03-09 13:40:00,
2013-03-09 08:50:00,34.0,30.3,30.28,North,0,0.1,0.0,86,0.00,,,0.00,meteo_script,2013-03-09 13:50:00,
2013-03-09 08:55:00,34.8,30.2,30.28,North,0,0.2,4.0,83,0.00,,,0.00,meteo_script,2013-03-09 13:55:00,
2013-03-09 09:00:00,35.3,30.7,30.28,North,0,0.3,4.0,83,0.00,,,0.00,meteo_script,2013-03-09 14:00:00,
2013-03-09 09:05:00,36.1,31.1,30.28,NNW,334,0.5,6.0,82,0.00,,,0.00,meteo_script,2013-03-09 14:05:00,
2013-03-09 09:15:00,37.1,30.6,30.28,NNW,347,0.4,4.0,77,0.00,,,0.00,meteo_script,2013-03-09 14:15:00,
2013-03-09 09:20:00,37.4,30.8,30.28,NNW,343,0.7,4.0,76,0.00,,,0.00,meteo_script,2013-03-09 14:20:00,
2013-03-09 09:25:00,38.0,31.6,30.28,WSW,241,0.6,2.0,77,0.00,,,0.00,meteo_script,2013-03-09 14:25:00,
2013-03-09 09:35:00,39.1,30.7,30.28,North,359,1.0,6.0,71,0.00,,,0.00,meteo_script,2013-03-09 14:35:00,
2013-03-09 09:40:00,39.7,31.1,30.28,NNW,347,1.0,5.0,71,0.00,,,0.00,meteo_script,2013-03-09 14:40:00,
2013-03-09 09:45:00,40.3,30.8,30.27,NNW,334,0.7,5.0,68,0.00,,,0.00,meteo_script,2013-03-09 14:45:00,
2013-03-09 09:50:00,41.0,31.9,30.27,North,0,0.5,2.0,69,0.00,,,0.00,meteo_script,2013-03-09 14:50:00,
2013-03-09 10:00:00,42.2,32.6,30.28,WNW,303,0.5,4.0,68,0.00,,,0.00,meteo_script,2013-03-09 15:00:00,
2013-03-09 10:05:00,42.9,32.7,30.28,NNW,338,0.6,4.0,66,0.00,,,0.00,meteo_script,2013-03-09 15:05:00,
2013-03-09 10:10:00,43.5,33.8,30.27,North,357,0.9,5.0,68,0.00,,,0.00,meteo_script,2013-03-09 15:10:00,
2013-03-09 10:20:00,45.4,34.4,30.28,NW,309,0.7,4.0,65,0.00,,,0.00,meteo_script,2013-03-09 15:20:00,
2013-03-09 10:25:00,46.1,34.6,30.28,NW,309,0.4,2.0,64,0.00,,,0.00,meteo_script,2013-03-09 15:25:00,
2013-03-09 10:30:00,47.0,36.0,30.28,North,0,0.2,2.0,65,0.00,,,0.00,meteo_script,2013-03-09 15:30:00,
2013-03-09 10:40:00,48.8,35.1,30.28,NW,325,0.6,3.0,59,0.00,,,0.00,meteo_script,2013-03-09 15:40:00,
2013-03-09 10:45:00,49.4,36.3,30.28,WNW,287,0.6,3.0,60,0.00,,,0.00,meteo_script,2013-03-09 15:45:00,
2013-03-09 10:50:00,50.0,36.0,30.28,WSW,253,0.4,3.0,58,0.00,,,0.00,meteo_script,2013-03-09 15:50:00,
2013-03-09 10:55:00,50.3,35.5,30.27,NNW,329,0.4,4.0,56,0.00,,,0.00,meteo_script,2013-03-09 15:55:00,
2013-03-09 11:05:00,51.3,35.2,30.28,WNW,297,0.4,4.0,53,0.01,,,0.01,meteo_script,2013-03-09 16:05:00,
2013-03-09 11:10:00,51.4,34.4,30.28,NW,312,0.4,4.0,52,0.01,,,0.01,meteo_script,2013-03-09 16:10:00,
2013-03-09 11:15:00,51.7,34.7,30.28,North,0,0.6,5.0,52,0.02,,,0.02,meteo_script,2013-03-09 16:15:00,
2013-03-09 11:25:00,51.8,34.2,30.28,WNW,301,0.9,3.0,50,0.03,,,0.03,meteo_script,2013-03-09 16:25:00,
2013-03-09 11:30:00,51.3,33.4,30.28,NNW,334,1.2,5.0,50,0.04,,,0.04,meteo_script,2013-03-09 16:30:00,
2013-03-09 11:40:00,52.4,35.0,30.28,North,0,0.5,3.0,51,0.06,,,0.06,meteo_script,2013-03-09 16:40:00,
2013-03-09 11:50:00,53.1,34.9,30.28,North,0,0.7,3.0,49,0.07,,,0.07,meteo_script,2013-03-09 16:50:00,
2013-03-09 11:55:00,53.4,34.2,30.28,North,0,0.3,2.0,48,0.08,,,0.08,meteo_script,2013-03-09 16:55:00,
2013-03-09 12:00:00,53.7,33.6,30.29,NNW,336,0.3,3.0,46,0.09,,,0.09,meteo_script,2013-03-09 17:00:00,
2013-03-09 12:10:00,53.7,32.8,30.28,WNW,285,0.2,3.0,44,0.10,,,0.11,meteo_script,2013-03-09 17:10:00,
2013-03-09 12:15:00,53.9,33.3,30.28,West,280,0.4,3.0,45,0.10,,,0.12,meteo_script,2013-03-09 17:15:00,
2013-03-09 12:20:00,54.2,34.6,30.28,NW,317,0.9,4.0,47,0.10,,,0.13,meteo_script,2013-03-09 17:20:00,
2013-03-09 12:25:00,54.6,35.1,30.28,NW,317,0.8,3.0,47,0.11,,,0.14,meteo_script,2013-03-09 17:25:00,
2013-03-09 12:35:00,54.2,32.8,30.27,West,262,0.6,2.0,44,0.11,,,0.16,meteo_script,2013-03-09 17:35:00,
2013-03-09 12:40:00,54.8,35.5,30.27,NW,315,0.7,4.0,48,0.11,,,0.17,meteo_script,2013-03-09 17:40:00,
2013-03-09 12:50:00,54.7,34.0,30.27,NW,310,0.3,3.0,45,0.13,,,0.20,meteo_script,2013-03-09 17:50:00,
2013-03-09 12:55:00,54.8,33.8,30.27,WNW,290,0.4,3.0,45,0.13,,,0.21,meteo_script,2013-03-09 17:55:00,
2013-03-09 13:00:00,55.1,33.0,30.27,WNW,303,0.4,2.0,43,0.14,,,0.23,meteo_script,2013-03-09 18:00:00,
2013-03-09 13:10:00,54.8,33.2,30.26,NW,315,0.3,2.0,43,0.15,,,0.26,meteo_script,2013-03-09 18:10:00,
2013-03-09 13:15:00,54.6,31.6,30.26,NW,323,0.8,6.0,41,0.16,,,0.28,meteo_script,2013-03-09 18:15:00,
2013-03-09 13:20:00,54.8,33.3,30.26,NW,315,1.0,5.0,44,0.16,,,0.29,meteo_script,2013-03-09 18:20:00,
2013-03-09 13:25:00,54.7,31.7,30.26,WNW,295,0.8,4.0,41,0.17,,,0.31,meteo_script,2013-03-09 18:25:00,
2013-03-09 13:35:00,53.8,30.7,30.26,ENE,64,1.4,5.0,41,0.18,,,0.34,meteo_script,2013-03-09 18:35:00,
2013-03-09 13:40:00,54.0,32.5,30.26,ENE,72,0.9,2.0,43,0.18,,,0.35,meteo_script,2013-03-09 18:40:00,
2013-03-09 13:45:00,54.5,31.6,30.26,SSW,195,0.3,2.0,41,0.18,,,0.36,meteo_script,2013-03-09 18:45:00,
2013-03-09 13:55:00,54.8,31.0,30.26,NNW,347,1.1,4.0,40,0.17,,,0.38,meteo_script,2013-03-09 18:55:00,
2013-03-09 14:00:00,54.3,30.5,30.26,North,351,0.7,2.0,40,0.16,,,0.39,meteo_script,2013-03-09 19:00:00,
2013-03-09 14:05:00,54.5,31.9,30.25,NNW,341,0.3,3.0,42,0.15,,,0.40,meteo_script,2013-03-09 19:05:00,
2013-03-09 14:15:00,54.6,32.1,30.25,East,95,0.5,3.0,42,0.14,,,0.42,meteo_script,2013-03-09 19:15:00,
2013-03-09 14:20:00,54.2,32.2,30.25,North,0,0.6,2.0,43,0.14,,,0.43,meteo_script,2013-03-09 19:20:00,
2013-03-09 14:25:00,54.1,30.9,30.25,East,97,0.4,3.0,40,0.13,,,0.44,meteo_script,2013-03-09 19:25:00,
2013-03-09 14:35:00,53.9,32.2,30.25,North,0,0.3,3.0,43,0.12,,,0.46,meteo_script,2013-03-09 19:35:00,
2013-03-09 14:40:00,53.5,33.4,30.25,ESE,120,0.6,3.0,46,0.12,,,0.47,meteo_script,2013-03-09 19:40:00,
2013-03-09 14:45:00,53.0,32.5,30.25,East,89,0.6,3.0,45,0.12,,,0.48,meteo_script,2013-03-09 19:45:00,
2013-03-09 14:55:00,52.5,32.3,30.25,ESE,111,0.8,4.0,46,0.11,,,0.49,meteo_script,2013-03-09 19:55:00,
2013-03-09 15:00:00,52.0,33.3,30.25,SE,136,0.8,4.0,48,0.10,,,0.49,meteo_script,2013-03-09 20:00:00,
2013-03-09 15:05:00,51.7,32.8,30.25,SE,131,0.5,2.0,48,0.10,,,0.50,meteo_script,2013-03-09 20:05:00,
2013-03-09 15:10:00,51.5,33.3,30.25,SE,143,0.4,3.0,49,0.09,,,0.50,meteo_script,2013-03-09 20:10:00,
2013-03-09 15:20:00,50.7,32.4,30.26,SSW,203,0.5,3.0,49,0.08,,,0.51,meteo_script,2013-03-09 20:20:00,
2013-03-09 15:25:00,50.4,32.7,30.26,WNW,286,0.4,2.0,50,0.08,,,0.52,meteo_script,2013-03-09 20:25:00,
2013-03-09 15:30:00,49.8,32.4,30.25,East,95,0.5,3.0,51,0.07,,,0.52,meteo_script,2013-03-09 20:30:00,
2013-03-09 15:40:00,49.4,31.2,30.26,SW,214,0.3,3.0,49,0.06,,,0.53,meteo_script,2013-03-09 20:40:00,
2013-03-09 15:45:00,49.1,30.8,30.26,WNW,284,0.5,3.0,49,0.05,,,0.53,meteo_script,2013-03-09 20:45:00,
2013-03-09 15:50:00,48.9,31.9,30.26,East,86,0.5,3.0,51,0.06,,,0.54,meteo_script,2013-03-09 20:50:00,
2013-03-09 15:55:00,48.4,31.1,30.27,ESE,108,0.5,2.0,50,0.05,,,0.54,meteo_script,2013-03-09 20:55:00,
2013-03-09 16:05:00,47.4,32.0,30.28,ESE,117,0.4,3.0,54,0.04,,,0.54,meteo_script,2013-03-09 21:05:00,
2013-03-09 16:10:00,47.1,31.6,30.27,SE,138,0.3,2.0,54,0.05,,,0.55,meteo_script,2013-03-09 21:10:00,
2013-03-09 16:15:00,46.7,32.1,30.28,SE,128,0.4,2.0,56,0.04,,,0.55,meteo_script,2013-03-09 21:15:00,
2013-03-09 16:25:00,45.8,33.5,30.28,East,84,0.6,4.0,61,0.03,,,0.55,meteo_script,2013-03-09 21:25:00,
2013-03-09 16:30:00,45.2,33.8,30.29,SSW,213,0.8,4.0,64,0.03,,,0.55,meteo_script,2013-03-09 21:30:00,
2013-03-09 16:40:00,44.0,34.2,30.29,North,0,0.1,1.0,68,0.03,,,0.56,meteo_script,2013-03-09 21:40:00,
2013-03-09 16:45:00,43.6,33.7,30.29,SW,214,0.2,1.0,67,0.03,,,0.56,meteo_script,2013-03-09 21:45:00,
2013-03-09 16:50:00,43.3,33.5,30.29,North,0,0.1,1.0,68,0.02,,,0.56,meteo_script,2013-03-09 21:50:00,
2013-03-09 16:55:00,43.0,33.4,30.29,SW,214,0.1,1.0,68,0.02,,,0.56,meteo_script,2013-03-09 21:55:00,
2013-03-09 17:05:00,42.3,33.9,30.30,SE,140,0.2,2.0,71,0.02,,,0.56,meteo_script,2013-03-09 22:05:00,
2013-03-09 17:10:00,41.8,33.8,30.30,North,0,0.2,1.0,73,0.01,,,0.56,meteo_script,2013-03-09 22:10:00,
2013-03-09 17:15:00,41.5,33.9,30.30,SE,140,0.1,1.0,73,0.01,,,0.56,meteo_script,2013-03-09 22:15:00,
2013-03-09 17:25:00,41.0,34.5,30.31,SE,137,0.1,2.0,77,0.01,,,0.56,meteo_script,2013-03-09 22:25:00,
2013-03-09 17:30:00,40.5,34.5,30.31,SE,137,0.1,1.0,79,0.01,,,0.56,meteo_script,2013-03-09 22:30:00,
2013-03-09 17:35:00,40.0,34.3,30.31,North,0,0.1,1.0,80,0.01,,,0.56,meteo_script,2013-03-09 22:35:00,
2013-03-09 17:40:00,39.6,34.7,30.32,SE,137,0.1,1.0,82,0.00,,,0.56,meteo_script,2013-03-09 22:40:00,
2013-03-09 17:50:00,38.9,34.5,30.32,SE,137,0.0,1.0,84,0.01,,,0.57,meteo_script,2013-03-09 22:50:00,
2013-03-09 17:55:00,38.5,34.4,30.33,SE,137,0.0,1.0,85,0.01,,,0.57,meteo_script,2013-03-09 22:55:00,
2013-03-09 18:00:00,38.2,34.7,30.33,North,0,0.0,0.0,87,0.01,,,0.57,meteo_script,2013-03-09 23:00:00,
2013-03-09 18:10:00,37.8,34.5,30.33,North,0,0.1,1.0,87,0.01,,,0.57,meteo_script,2013-03-09 23:10:00,
2013-03-09 18:15:00,37.5,34.6,30.33,North,0,0.0,0.0,89,0.01,,,0.57,meteo_script,2013-03-09 23:15:00,
2013-03-09 18:20:00,37.2,34.0,30.33,North,0,0.0,0.0,88,0.01,,,0.57,meteo_script,2013-03-09 23:20:00,
2013-03-09 18:30:00,36.9,34.4,30.33,North,0,0.0,0.0,90,0.01,,,0.57,meteo_script,2013-03-09 23:30:00,
2013-03-09 18:35:00,36.7,34.3,30.33,North,0,0.0,0.0,91,0.01,,,0.57,meteo_script,2013-03-09 23:35:00,
2013-03-09 18:40:00,36.3,33.9,30.34,North,0,0.0,0.0,91,0.01,,,0.57,meteo_script,2013-03-09 23:40:00,
2013-03-09 18:50:00,35.7,33.7,30.34,North,0,0.0,0.0,92,0.00,,,0.57,meteo_script,2013-03-09 23:50:00,
2013-03-09 18:55:00,35.6,33.9,30.34,North,0,0.0,0.0,93,0.00,,,0.57,meteo_script,2013-03-09 23:55:00,
2013-03-09 19:00:00,35.3,33.5,30.34,North,0,0.0,0.0,93,0.00,,,0.57,meteo_script,2013-03-10 00:00:00,
2013-03-09 19:05:00,34.9,33.4,30.34,North,0,0.0,0.0,94,0.00,,,0.57,meteo_script,2013-03-10 00:05:00,
2013-03-09 19:15:00,34.4,32.9,30.35,North,0,0.0,0.0,94,0.00,,,0.57,meteo_script,2013-03-10 00:15:00,
2013-03-09 19:20:00,34.2,33.1,30.35,North,0,0.0,0.0,95,0.00,,,0.57,meteo_script,2013-03-10 00:20:00,
2013-03-09 19:25:00,34.1,32.8,30.35,North,0,0.0,0.0,95,0.00,,,0.57,meteo_script,2013-03-10 00:25:00,
2013-03-09 19:30:00,33.9,32.9,30.35,North,0,0.0,0.0,96,0.00,,,0.57,meteo_script,2013-03-10 00:30:00,
2013-03-09 19:40:00,33.6,32.6,30.36,North,0,0.0,0.0,96,0.00,,,0.57,meteo_script,2013-03-10 00:40:00,
2013-03-09 19:45:00,33.5,32.5,30.36,North,0,0.0,0.0,96,0.00,,,0.57,meteo_script,2013-03-10 00:45:00,
2013-03-09 19:50:00,33.4,32.6,30.36,North,0,0.0,0.0,97,0.00,,,0.57,meteo_script,2013-03-10 00:50:00,
2013-03-09 19:55:00,33.2,32.4,30.36,North,0,0.0,0.0,97,0.00,,,0.57,meteo_script,2013-03-10 00:55:00,
2013-03-09 20:05:00,32.7,32.2,30.37,North,0,0.0,0.0,98,0.00,,,0.57,meteo_script,2013-03-10 01:05:00,
2013-03-09 20:10:00,32.5,32.1,30.37,North,0,0.0,0.0,98,0.00,,,0.57,meteo_script,2013-03-10 01:10:00,
2013-03-09 20:15:00,32.5,32.3,30.36,North,0,0.0,0.0,99,0.00,,,0.57,meteo_script,2013-03-10 01:15:00,
2013-03-09 20:20:00,32.6,32.4,30.37,North,0,0.0,0.0,99,0.00,,,0.57,meteo_script,2013-03-10 01:20:00,
2013-03-09 20:30:00,32.5,32.2,30.37,North,0,0.0,0.0,99,0.00,,,0.57,meteo_script,2013-03-10 01:30:00,
2013-03-09 20:35:00,32.3,32.1,30.37,North,0,0.0,0.0,99,0.00,,,0.57,meteo_script,2013-03-10 01:35:00,
2013-03-09 20:40:00,32.1,31.9,30.37,North,0,0.0,0.0,99,0.00,,,0.57,meteo_script,2013-03-10 01:40:00,
2013-03-09 20:50:00,31.7,31.7,30.37,North,0,0.0,0.0,100,0.00,,,0.57,meteo_script,2013-03-10 01:50:00,
2013-03-09 20:55:00,31.5,31.5,30.38,North,0,0.0,0.0,100,0.00,,,0.57,meteo_script,2013-03-10 01:55:00,
2013-03-09 21:00:00,31.3,31.3,30.38,North,0,0.0,0.0,100,0.00,,,0.57,meteo_script,2013-03-10 02:00:00,
2013-03-09 21:05:00,31.2,31.2,30.38,North,0,0.0,0.0,100,0.00,,,0.57,meteo_script,2013-03-10 02:05:00,
2013-03-09 21:15:00,31.9,31.9,30.38,North,0,0.0,0.0,100,0.00,,,0.57,meteo_script,2013-03-10 02:15:00,
2013-03-09 21:25:00,31.5,31.5,30.38,North,0,0.0,0.0,100,0.00,,,0.57,meteo_script,2013-03-10 02:25:00,
2013-03-09 21:35:00,31.7,31.7,30.38,North,0,0.0,0.0,100,0.00,,,0.57,meteo_script,2013-03-10 02:35:00,
2013-03-09 21:40:00,31.6,31.6,30.38,North,0,0.0,0.0,100,0.00,,,0.57,meteo_script,2013-03-10 02:40:00,
2013-03-09 21:45:00,31.3,31.3,30.38,North,0,0.0,0.0,100,0.00,,,0.57,meteo_script,2013-03-10 02:45:00,
2013-03-09 21:50:00,30.9,30.9,30.38,North,0,0.0,0.0,100,0.00,,,0.57,meteo_script,2013-03-10 02:50:00,
2013-03-09 22:00:00,30.5,30.5,30.38,North,0,0.0,0.0,100,0.00,,,0.57,meteo_script,2013-03-10 03:00:00,
2013-03-09 22:05:00,30.3,30.3,30.37,North,0,0.0,0.0,100,0.00,,,0.57,meteo_script,2013-03-10 03:05:00,
2013-03-09 22:10:00,30.1,30.1,30.37,North,0,0.0,0.0,100,0.00,,,0.57,meteo_script,2013-03-10 03:10:00,
2013-03-09 22:20:00,29.6,29.6,30.38,North,0,0.0,0.0,100,0.00,,,0.57,meteo_script,2013-03-10 03:20:00,
2013-03-09 22:25:00,29.2,29.2,30.38,North,0,0.0,0.0,100,0.00,,,0.57,meteo_script,2013-03-10 03:25:00,
2013-03-09 22:30:00,28.7,28.7,30.38,North,0,0.0,0.0,100,0.00,,,0.57,meteo_script,2013-03-10 03:30:00,
2013-03-09 22:35:00,28.4,28.4,30.38,North,0,0.0,0.0,100,0.00,,,0.57,meteo_script,2013-03-10 03:35:00,
2013-03-09 22:45:00,28.0,28.0,30.38,North,0,0.0,0.0,100,0.00,,,0.57,meteo_script,2013-03-10 03:45:00,
2013-03-09 22:50:00,27.9,27.9,30.38,North,0,0.0,0.0,100,0.00,,,0.57,meteo_script,2013-03-10 03:50:00,
2013-03-09 22:55:00,27.9,27.9,30.38,North,0,0.0,0.0,100,0.00,,,0.57,meteo_script,2013-03-10 03:55:00,
2013-03-09 23:00:00,27.8,27.8,30.38,North,0,0.0,0.0,100,0.00,,,0.57,meteo_script,2013-03-10 04:00:00,
2013-03-09 23:10:00,27.7,27.7,30.38,North,0,0.0,0.0,100,0.00,,,0.57,meteo_script,2013-03-10 04:10:00,
2013-03-09 23:15:00,27.7,27.7,30.38,North,0,0.0,0.0,100,0.00,,,0.57,meteo_script,2013-03-10 04:15:00,
2013-03-09 23:25:00,27.7,27.7,30.38,North,0,0.0,0.0,100,0.00,,,0.57,meteo_script,2013-03-10 04:25:00,
2013-03-09 23:30:00,27.6,27.6,30.38,North,0,0.0,0.0,100,0.00,,,0.57,meteo_script,2013-03-10 04:30:00,
2013-03-09 23:35:00,27.6,27.6,30.39,North,0,0.0,0.0,100,0.00,,,0.57,meteo_script,2013-03-10 04:35:00,
2013-03-09 23:45:00,27.5,27.5,30.39,North,0,0.0,0.0,100,0.00,,,0.57,meteo_script,2013-03-10 04:45:00,
2013-03-09 23:50:00,27.5,27.5,30.39,North,0,0.0,0.0,100,0.00,,,0.57,meteo_script,2013-03-10 04:50:00,
2013-03-09 23:55:00,27.5,27.5,30.39,North,0,0.0,0.0,100,0.00,,,0.57,meteo_script,2013-03-10 04:55:00,